星链-31362 (STARLINK-31362 )

导读 | 豆包AI

STARLINK-31362是美国SpaceX公司星链(Starlink)星座的成员卫星,于2024年2月10日发射升空。作为星链互联网星座的组成部分,它运行在近地轨道,主要为全球用户提供高带宽、低延迟的宽带互联网服务,助力实现全球范围的网络覆盖,推动星链星座向更全面的全球互联和更高性能的通信服务迈进。

基本信息
目录编号:
58935
目录名称:
STARLINK-31362
国际标识:
2024-027E
轨道中心:
EARTH
卫星名称:
星链-31362
卫星全名:
星链-31362 (STARLINK-31362 )
卫星状态:
在轨 (已飞行764 天)
发射日期:
2024-02-10 UTC
国别 :
美国 (US)
星等 :
--
轨道信息
数据来源 国际轨道数据
星历时间: 2026-03-15T21:33:44+0800
10小时前
查看轨道信息
半长轴: 6853.332km
偏心率: 0.0000979
轨道倾角: 53.158°
近地点辐角 94.449°
升交点赤经 282.632°
平近点角 265.662°
近地点: 474.524km
远地点: 475.866km
周期: 94.105分钟
每日圈数: 15.30207
详细信息
固有亮度:
5
最大亮度:
0.3
卫星平台:
Starlink v2.0 mini
覆盖范围:
全球
运营商:
太空探索技术公司
运营商所在国:
美国
制造商(研发单位):
太空探索技术公司
制造商所在国:
美国
使用方式:
暂无
卫星简介
星链(Starlink)计划是由太空探索技术公司(SpaceX)提出的一个巨型低轨卫星互联网星座项目,计划在2019年至2024年间在太空搭建由约1.2万颗卫星组成的“星链”网络,其中1584颗将部署在地球上空550千米处的近地轨道,并从2020年开始工作。该卫星仍在工作。
2D轨道图
3D轨道图
轨道高度分析图
轨道倾角分析图
轨道综合分析图
查看轨道综合分析图